This demonstration page uses our WeatherBlox Daily Observations layout. Learn more.

Left ArrowRight Arrow

41.12389, -100.76542

Hourly Observations for April 1, 2018

Temp ( °F °C ) Dew Point ( °F °C ) Humidity (%) Winds ( mph kmh ) Pressure ( in mb ) Visibility ( mi km ) Precip ( " mm )
12:02 am 00:02 Mostly Cloudy with Light Snow 24 -4.4 20 -6.7 84 84 NE 6 9 30.48 1032 1 1 0.01 0.25
12:16 am 00:16 Mostly Cloudy with Light Snow 23 -5 20 -6.7 88 88 NE 6 9 30.50 1033 1 1 0.02 0.51
12:43 am 00:43 Mostly Cloudy with Light Snow 23 -5 20 -6.7 88 88 NE 6 9 30.50 1033 1 2 0.05 1.27
12:53 am 00:53 Cloudy with Light Snow 23 -5 20 -6.7 88 88 ENE 5 7 30.42 1030 1 2 0.05 1.27
1:00 am 01:00 Cloudy with Light Snow 23 -5 20 -6.7 88 88 NE 5 7 30.50 1033 2 2 0.00 0.03
1:11 am 01:11 Cloudy with Light Snow 23 -5 19 -7.2 85 85 ENE 5 7 30.50 1033 1 2 0.01 0.25
1:19 am 01:19 Cloudy with Light Snow 23 -5 19 -7.2 85 85 ENE 6 9 30.50 1033 2 3 0.01 0.25
1:32 am 01:32 Cloudy with Light Snow 23 -5 20 -6.7 88 88 ENE 6 9 30.50 1033 3 5 0.01 0.25
1:53 am 01:53 Cloudy with Light Snow 23 -5 19 -7.2 85 85 ENE 8 13 30.40 1030 4 6 0.01 0.25
2:53 am 02:53 Cloudy 23 -5 19 -7.2 85 85 E 5 7 30.38 1029 10 16 0.00 0.03
3:51 am 03:51 Cloudy with Light Snow 21 -6 19 -7 93 93 E 6 9 30.45 1031 2 3 0.01 0.25
3:53 am 03:53 Cloudy with Light Snow 22 -5.6 19 -7.2 89 89 E 6 9 30.35 1028 2 3 0.01 0.25
4:00 am 04:00 Cloudy with Light Snow 22 -5.6 18 -7.8 85 85 ESE 7 11 30.45 1031 2 2 0.00 0.03
4:07 am 04:07 Cloudy with Light Snow 22 -5.6 18 -7.8 85 85 ESE 6 9 30.45 1031 1 2 0.01 0.25
4:29 am 04:29 Mostly Cloudy with Light Snow 22 -5.6 18 -7.8 85 85 ESE 6 9 30.45 1031 1 2 0.02 0.51
4:53 am 04:53 Mostly Cloudy with Light Snow 22 -5.6 18 -7.8 85 85 E 5 7 30.35 1028 1 2 0.04 1.02
5:53 am 05:53 Cloudy with Light Snow 21 -6.1 18 -7.8 88 88 E 5 7 30.35 1028 1 2 0.03 0.76
6:20 am 06:20 Cloudy with Light Snow 21 -6.1 18 -7.8 88 88 E 5 7 30.42 1030 2 2 0.01 0.25
6:46 am 06:46 Cloudy with Light Snow 21 -6.1 18 -7.8 88 88 E 3 6 30.45 1031 1 2 0.02 0.51
6:53 am 06:53 Cloudy with Light Snow 21 -6.1 18 -7.8 88 88 E 5 7 30.35 1028 2 2 0.02 0.51
7:03 am 07:03 Mostly Cloudy with Light Snow 21 -6.1 18 -7.8 88 88 E 3 6 30.45 1031 1 2 0.01 0.25
7:13 am 07:13 Mostly Cloudy with Light Snow 21 -6.1 18 -7.8 88 88 E 3 6 30.45 1031 1 2 0.02 0.51
7:39 am 07:39 Mostly Cloudy with Light Snow 21 -6.1 18 -7.8 88 88 ESE 6 9 30.42 1030 1 1 0.04 1.02
7:53 am 07:53 Mostly Cloudy with Light Snow 21 -6.1 18 -7.8 88 88 ESE 6 9 30.34 1028 1 1 0.04 1.02
8:22 am 08:22 Cloudy with Light Snow 21 -6.1 18 -7.8 88 88 ESE 6 9 30.42 1030 1 2 0.02 0.51
8:53 am 08:53 Cloudy with Light Snow 22 -5.6 18 -7.8 85 85 ESE 7 11 30.35 1028 1 1 0.02 0.51
9:24 am 09:24 Cloudy with Light Snow 22 -5.6 18 -7.8 85 85 ESE 5 7 30.42 1030 2 2 0.02 0.51
9:36 am 09:36 Cloudy with Light Snow 22 -5.6 18 -7.8 85 85 E 5 7 30.45 1031 2 3 0.02 0.51
9:44 am 09:44 Cloudy with Light Snow 22 -5.6 18 -7.8 85 85 ESE 6 9 30.42 1030 3 4 0.02 0.51
9:53 am 09:53 Cloudy with Light Snow 22 -5.6 18 -7.8 85 85 SE 7 11 30.35 1028 3 5 0.02 0.51
10:16 am 10:16 Cloudy with Light Snow 23 -5 18 -7.8 81 81 SE 6 9 30.39 1029 2 3 0.00 0.03
10:23 am 10:23 Cloudy with Light Snow 23 -5 18 -7.8 81 81 SE 6 9 30.39 1029 2 3 0.00 0.03
10:38 am 10:38 Cloudy with Light Snow 23 -5 19 -7.2 85 85 SE 5 7 30.39 1029 1 2 0.01 0.25
10:53 am 10:53 Cloudy with Light Snow 23 -5 19 -7.2 85 85 SE 6 9 30.35 1028 2 2 0.01 0.25
11:05 am 11:05 Cloudy with Light Snow 24 -4.4 19 -7.2 81 81 SSE 5 7 30.39 1029 2 3 0.00 0.03
11:19 am 11:19 Cloudy with Light Snow 25 -3.9 20 -6.7 81 81 S 6 9 30.39 1029 3 5 0.00 0.03
11:28 am 11:28 Cloudy with Light Snow 24 -4.4 19 -7.2 81 81 S 6 9 30.39 1029 5 8 0.00 0.03
11:53 am 11:53 Cloudy 24 -4.4 20 -6.7 84 84 S 7 11 30.35 1028 10 16 0.00 0.03
12:41 pm 12:41 Cloudy 25 -3.9 19 -7.2 78 78 SSW 8 13 30.39 1029 10 16 0.00 0.00
12:53 pm 12:53 Cloudy 26 -3.3 19 -7.2 75 75 SW 8 13 30.33 1027 10 16 0.00 0.00
1:53 pm 13:53 Cloudy 27 -2.8 20 -6.7 75 75 S 8 13 30.27 1025 10 16 0.00 0.00
2:24 pm 14:24 Partly Cloudy 28 -2.2 19 -7.2 69 69 S 13 20 30.30 1026 N/A 0.00 0.00
2:38 pm 14:38 Mostly Cloudy 28 -2.2 19 -7.2 69 69 SSW 9 15 30.30 1026 N/A 0.00 0.00
2:53 pm 14:53 Cloudy 28 -2.2 19 -7.2 69 69 S 14 22 30.22 1024 N/A 0.00 0.00
3:53 pm 15:53 Cloudy 28 -2.2 20 -6.7 72 72 S 10 17 30.19 1023 10 16 0.00 0.00
4:53 pm 16:53 Cloudy 29 -1.7 21 -6.1 72 72 S 8 13 30.17 1022 10 16 0.00 0.00
5:53 pm 17:53 Mostly Cloudy 30 -1.1 22 -5.6 72 72 S 12 19 30.13 1020 10 16 0.00 0.00
6:02 pm 18:02 Partly Cloudy 30 -1.1 22 -5.6 72 72 S 9 15 30.15 1021 N/A 0.00 0.00
6:12 pm 18:12 Mostly Cloudy 30 -1.1 22 -5.6 72 72 SE 9 15 30.15 1021 N/A 0.00 0.00
6:30 pm 18:30 Mostly Cloudy 30 -1.1 22 -5.6 72 72 SE 9 15 30.12 1020 N/A 0.00 0.00
6:53 pm 18:53 Mostly Sunny 30 -1.1 22 -5.6 72 72 SE 9 15 30.09 1019 10 16 0.00 0.00
7:53 pm 19:53 Sunny 28 -2.2 21 -6.1 75 75 SE 7 11 30.07 1018 10 16 0.00 0.00
8:53 pm 20:53 Clear 25 -3.9 20 -6.7 81 81 SE 9 15 30.06 1018 10 16 0.00 0.00
9:53 pm 21:53 Clear 24 -4.4 18 -7.8 77 77 SE 9 15 30.07 1018 10 16 0.00 0.00
10:53 pm 22:53 Clear 23 -5 18 -7.8 81 81 SE 10 17 30.05 1018 10 16 0.00 0.00
11:53 pm 23:53 Clear 24 -4.4 18 -7.8 77 77 SE 12 19 30.01 1016 10 16 0.00 0.00

Powered by AerisWeather